Location: *
(42.0175°N, 9.4056°E)
Time: 21:54:17
(UTC+00:00)

Cosmos 2074 Rocket - Pass Details

Date: 25 August 2019
Orbit: 966 x 987 km, 82.9° (Epoch: 22 October)

Event Time Altitude Azimuth Distance (km) Brightness Sun altitude
Rises 20:21:12 0° 357° (N) 3,705 7.7 -22.7°
Reaches altitude 10° 20:23:51 10° 3° (N) 2,751 6.8 -23.0°
Maximum altitude 20:29:55 48° 77° (ENE) 1,270 4.3 -23.9°
Enters shadow 20:30:39 46° 98° (E) 1,302 4.3 -24.0°
